Wind_Speed
14 15 14 12 11 10 10 10 10 10 9 10 13 10 5 4 12 19 18 18 18 13 5 9 7 2 6 3 1 2 3 5 11 7 4 13 9 12 11 15 18 17 10 9 7
13 14 13 12 10 9 10 10 9 6 9 11 11 16 6 2 10 15 18 14 15 9 9 9 4 5 4 4 4 3 3 5 5 8 7 13 12 15 13 17 17 19 18 17 18
13 13 12 11 10 9 10 10 8 6 5 10 12 10 8 4 5 11 14 13 15 12 8 6 4 1 3 3 3 2 3 7 10 9 11 12 15 14 12 7 11 17 20 21 22
12 13 12 11 9 10 11 12 10 8 4 6 11 5 11 12 2 13 12 12 13 18 7 4 2 1 3 3 1 3 2 4 7 7 5 7 16 11 19 20 18 19 18 16 14
12 13 12 11 10 10 11 12 9 8 4 4 9 6 4 5 5 10 10 10 10 12 14 6 7 6 2 3 3 4 6 5 4 8 9 14 12 14 25 29 16 12 10 12 17
11 12 12 11 10 10 12 12 8 5 3 3 5 10 7 3 9 9 6 10 8 12 12 13 6 6 5 4 5 7 9 11 5 7 10 10 17 12 14 7 6 12 16 20 21
11 12 13 11 10 10 12 9 9 6 5 1 3 3 6 3 9 10 6 7 8 8 7 9 12 4 2 2 3 5 5 7 8 6 3 10 10 8 12 12 12 18 21 21 16
11 12 13 11 10 10 11 7 7 3 5 0 1 3 1 3 9 12 6 5 7 7 6 6 8 5 4 1 4 5 3 5 5 3 4 4 7 18 22 21 27 22 18 17 13
12 12 12 12 10 10 12 8 6 6 4 4 2 2 1 4 7 13 10 5 4 4 6 8 7 2 3 3 2 2 4 8 9 6 1 3 13 16 27 28 24 18 14 13 10
12 12 12 12 11 10 12 9 6 4 1 2 4 1 2 4 8 15 11 4 4 4 3 2 2 1 5 6 2 4 4 5 12 6 7 13 23 20 25 27 21 9 6 6 11
12 11 11 11 11 11 11 5 3 3 5 4 0 1 2 6 3 13 9 5 4 2 3 3 5 5 5 6 2 4 8 10 14 10 12 10 19 23 22 21 9 7 7 11 11
12 11 10 10 10 9 9 4 2 1 1 1 1 2 3 5 3 11 5 1 2 3 2 0 4 3 2 2 4 7 9 9 9 13 16 11 21 23 15 8 3 6 11 14 12
14 12 10 9 9 7 7 5 2 0 3 0 1 0 2 4 3 9 11 5 4 4 5 4 4 1 2 3 5 6 6 7 10 17 12 9 8 8 6 7 4 11 8 11 15
12 12 11 8 5 7 5 6 2 2 2 3 2 1 2 2 1 8 10 3 1 3 4 4 3 1 3 1 4 4 6 9 13 9 3 8 5 6 3 6 3 12 16 16 19
11 10 9 8 6 5 5 5 2 2 3 2 0 1 4 3 2 3 8 2 3 2 2 2 1 2 3 3 3 7 11 12 14 6 6 2 0 6 10 7 7 9 16 21 25
12 10 8 6 4 4 5 3 3 4 5 1 2 2 3 3 2 4 2 4 0 1 1 4 1 2 5 6 3 9 9 9 1 2 1 2 2 6 4 5 7 9 18 26 33
15 12 8 6 3 1 2 2 4 3 2 1 1 3 2 2 3 3 3 4 3 3 3 3 3 3 2 4 3 7 6 4 5 2 4 6 5 9 10 5 4 8 19 28 37
19 14 10 8 4 1 1 3 2 2 5 0 2 1 1 3 2 1 1 3 5 4 2 2 4 3 1 3 2 5 2 4 4 3 6 9 6 5 4 4 8 21 27 33 36
24 16 11 9 5 4 4 1 5 5 3 7 3 2 2 1 1 1 2 2 3 4 2 3 2 4 2 2 1 1 1 1 0 4 2 4 6 8 5 4 12 20 26 34 36
27 17 12 9 8 5 4 5 3 1 3 2 4 2 4 3 3 4 4 1 4 2 2 1 4 2 3 2 2 2 1 1 0 4 6 6 6 5 8 8 9 17 25 34 37
26 8 9 13 12 7 3 6 3 2 2 2 4 3 2 4 3 3 4 1 3 4 1 4 1 1 2 6 5 1 1 2 2 2 4 4 6 3 6 8 15 18 30 35 39
24 2 13 19 5 4 3 5 1 2 3 2 2 2 5 6 4 3 3 1 7 9 4 3 1 4 3 5 4 4 3 5 4 4 3 2 8 8 6 16 23 26 30 35 35
14 7 18 27 5 4 2 2 1 4 3 3 3 1 2 5 1 2 3 3 7 5 5 5 2 4 2 3 1 4 5 4 5 3 6 3 7 1 16 15 27 25 29 33 37
11 3 4 13 4 5 4 4 4 6 1 4 2 4 3 1 3 4 5 3 6 2 5 2 1 6 6 3 3 5 6 9 7 3 4 11 12 25 18 16 20 25 27 33 33
18 6 11 6 6 5 10 8 8 6 4 8 4 7 5 4 3 4 4 4 4 6 5 3 4 5 6 16 9 14 15 12 10 12 7 13 8 25 21 17 12 22 31 34 34
17 7 9 7 10 14 11 9 10 5 9 6 6 6 8 5 4 8 7 6 5 8 6 4 3 3 6 7 8 13 13 15 17 16 15 21 27 25 23 14 19 23 28 31 32
27 18 20 15 6 10 8 10 15 14 12 5 8 4 8 6 10 9 4 10 10 8 7 6 2 2 6 5 8 7 7 13 5 5 7 7 12 4 9 8 12 20 22 26 31
Wind_Direction
356 356 356 357 357 357 0 2 8 10 22 16 13 5 272 2 37 10 25 2 354 359 22 26 38 60 117 168 197 252 270 260 270 319 9 37 13 343 331 307 300 276 269 302 301
354 355 354 355 354 351 354 358 2 1 23 16 8 17 10 265 45 8 7 5 7 13 38 77 68 117 124 163 177 249 217 307 25 17 350 343 348 316 300 293 285 294 293 305 328
350 352 354 352 348 345 348 347 342 339 348 14 12 19 36 46 65 355 2 13 19 38 23 66 81 68 116 181 149 265 245 11 37 15 351 323 310 322 305 268 276 319 319 317 320
348 351 354 348 345 342 344 344 338 340 314 357 13 44 49 39 34 344 7 17 27 42 23 48 74 229 169 177 140 279 58 359 321 352 317 309 311 299 281 274 294 301 294 294 306
346 351 350 346 347 339 341 341 338 346 354 14 23 55 63 44 6 0 13 20 36 40 50 77 66 346 84 57 241 247 18 322 312 322 314 315 293 288 292 293 299 295 291 290 298
345 349 349 348 344 337 340 339 334 341 4 18 47 52 37 74 4 6 17 26 40 66 42 73 52 48 60 32 350 349 315 293 314 310 306 296 299 310 279 303 304 282 280 288 296
340 346 348 345 340 336 338 339 338 335 326 300 42 99 51 58 18 8 13 28 45 52 57 60 65 90 5 149 342 285 296 241 208 240 281 352 282 207 266 294 315 291 285 290 290
334 339 343 341 337 334 336 334 355 337 3 279 341 106 107 354 15 7 12 23 32 50 57 60 75 58 80 321 232 241 161 3 163 81 146 16 280 294 318 318 304 289 285 283 288
330 333 340 338 336 331 333 324 311 350 279 24 46 91 45 335 2 1 2 13 32 53 43 45 70 92 30 270 193 51 321 336 338 320 246 203 286 267 298 298 290 284 275 273 276
329 332 337 337 334 333 331 325 312 342 349 283 62 124 11 316 325 1 350 19 38 38 30 28 271 76 34 13 80 318 320 322 302 289 338 314 279 288 288 287 287 295 285 270 256
323 330 333 337 335 337 340 339 7 8 17 108 339 341 341 338 5 348 3 23 352 67 36 17 70 52 21 30 1 274 277 282 292 329 348 286 290 286 287 287 278 257 228 242 262
315 322 328 335 336 344 347 11 351 220 281 11 51 23 355 23 4 326 16 345 338 64 323 11 90 61 300 217 285 314 309 299 309 352 313 296 293 291 277 252 56 349 318 320 311
313 318 325 333 337 347 2 17 15 306 259 183 194 158 17 57 42 349 14 13 356 49 345 63 103 221 257 302 0 309 296 344 309 327 286 324 288 351 6 97 213 255 258 275 283
309 316 322 335 344 347 359 356 341 340 42 236 175 272 41 86 98 1 11 24 109 35 348 62 135 301 280 353 46 299 40 332 308 332 304 9 290 299 34 223 170 21 2 359 346
297 303 312 325 326 342 338 355 33 342 339 57 13 265 73 66 7 337 15 21 28 27 274 124 73 343 284 55 14 250 315 292 272 267 305 328 59 264 301 12 356 10 354 347 337
282 287 293 302 309 330 345 12 352 38 254 84 320 231 192 76 84 333 5 23 134 234 288 86 65 301 341 301 239 280 296 299 71 227 352 200 86 279 287 346 345 352 340 339 328
270 280 273 274 278 336 344 357 36 175 1 250 112 306 346 68 115 41 58 20 17 31 21 170 152 108 314 305 162 16 360 343 354 330 232 157 288 247 290 34 351 307 347 339 329
258 260 256 249 242 146 25 43 171 233 229 101 132 146 342 340 71 68 201 159 70 353 317 33 318 174 147 43 345 53 70 126 257 298 287 285 231 255 338 97 337 2 338 335 328
253 239 237 227 204 173 122 51 220 207 174 153 76 104 327 272 339 168 51 54 69 38 72 347 229 115 16 26 318 129 111 49 240 236 313 243 278 289 126 343 18 345 337 335 329
236 221 219 205 185 166 78 251 235 172 148 146 173 148 172 211 205 192 160 76 123 78 356 13 305 97 134 211 95 48 348 122 50 330 300 283 291 250 340 321 353 341 337 337 332
218 187 194 182 157 143 195 236 258 204 232 207 189 152 188 186 221 197 159 163 138 130 22 104 225 193 121 201 157 134 180 279 115 194 224 305 267 308 299 353 352 342 343 338 332
200 167 177 168 111 225 193 206 163 160 221 263 276 126 179 169 172 191 191 129 162 140 140 56 187 265 214 106 69 312 220 172 135 261 243 214 266 270 279 356 353 340 338 335 333
191 153 175 169 165 206 234 188 232 155 211 200 232 163 101 189 147 134 117 60 147 147 161 180 224 319 328 24 112 231 196 214 99 90 221 158 261 216 336 340 337 339 337 333 340
184 140 155 190 221 162 155 199 203 198 186 196 141 121 124 102 27 180 155 174 172 136 115 133 242 204 205 191 93 230 201 196 144 163 236 230 276 293 308 321 326 335 335 342 341
203 182 179 177 198 199 172 171 183 179 223 201 216 210 169 150 141 210 147 116 173 164 180 229 224 214 237 265 266 261 251 238 212 205 193 270 292 290 298 310 315 333 345 344 343
208 176 164 175 146 179 189 197 186 140 173 222 215 159 210 190 201 193 139 171 185 170 181 194 262 10 294 242 237 259 248 233 235 240 252 262 278 280 287 316 340 346 346 343 344
215 203 192 166 163 175 185 190 201 146 220 184 189 147 206 206 94 89 111 137 148 150 186 157 218 67 269 341 311 302 231 199 200 187 177 202 235 296 322 324 348 350 346 345 348
Height
1515 1512 1510 1508 1507 1506 1504 1503 1501 1500 1498 1496 1494 1491 1490 1491 1490 1489 1484 1487 1483 1480 1479 1479 1481 1482 1483 1486 1487 1488 1490 1488 1480 1478 1477 1480 1481 1479 1481 1481 1481 1480 1479 1479 1475
1515 1513 1511 1508 1507 1506 1504 1503 1501 1500 1498 1496 1494 1492 1490 1491 1491 1490 1490 1488 1485 1481 1479 1480 1483 1483 1485 1486 1489 1489 1490 1484 1482 1483 1484 1483 1484 1484 1484 1481 1478 1477 1476 1475 1473
1515 1513 1511 1508 1507 1506 1504 1503 1501 1500 1498 1497 1495 1493 1491 1492 1492 1493 1491 1488 1485 1482 1482 1482 1483 1484 1485 1486 1488 1487 1488 1486 1484 1486 1487 1484 1482 1482 1481 1477 1476 1476 1474 1472 1471
1515 1513 1511 1509 1508 1506 1505 1503 1501 1499 1498 1497 1495 1494 1494 1493 1497 1494 1491 1488 1486 1484 1485 1485 1485 1485 1485 1486 1488 1490 1485 1487 1486 1487 1487 1485 1482 1479 1477 1473 1474 1474 1474 1472 1472
1515 1513 1511 1510 1508 1507 1504 1502 1501 1499 1498 1497 1496 1494 1495 1496 1497 1494 1492 1490 1488 1487 1485 1486 1486 1487 1486 1488 1489 1488 1487 1488 1486 1486 1484 1483 1481 1481 1472 1468 1470 1470 1469 1469 1468
1515 1513 1511 1509 1508 1506 1504 1502 1501 1499 1498 1497 1497 1495 1496 1498 1496 1494 1493 1491 1489 1487 1487 1486 1488 1488 1490 1491 1491 1491 1490 1487 1485 1486 1486 1485 1479 1481 1467 1467 1466 1467 1466 1465 1464
1514 1513 1511 1509 1507 1506 1504 1501 1500 1499 1498 1497 1497 1496 1497 1499 1496 1494 1493 1492 1490 1489 1489 1488 1488 1489 1491 1491 1493 1492 1490 1482 1485 1485 1486 1485 1479 1471 1467 1467 1466 1466 1465 1464 1463
1514 1512 1510 1508 1506 1505 1504 1501 1500 1499 1498 1497 1497 1497 1498 1498 1496 1495 1493 1492 1491 1490 1490 1489 1489 1490 1491 1492 1492 1489 1487 1489 1484 1484 1484 1486 1482 1467 1466 1465 1463 1461 1460 1460 1460
1514 1512 1510 1508 1506 1505 1503 1501 1500 1499 1498 1498 1498 1498 1499 1498 1497 1496 1493 1492 1491 1491 1491 1491 1491 1491 1491 1490 1491 1490 1499 1493 1490 1482 1482 1483 1476 1464 1464 1462 1458 1455 1456 1457 1457
1514 1511 1510 1508 1506 1504 1503 1501 1499 1498 1497 1498 1498 1501 1500 1499 1497 1496 1494 1493 1492 1491 1492 1492 1492 1492 1499 1496 1507 1506 1504 1498 1497 1483 1483 1482 1469 1462 1459 1458 1453 1452 1454 1455 1456
1513 1511 1509 1507 1506 1504 1503 1500 1501 1500 1498 1498 1500 1500 1499 1498 1498 1497 1494 1494 1493 1493 1492 1492 1497 1505 1506 1505 1505 1504 1504 1498 1487 1484 1487 1478 1468 1455 1452 1451 1448 1449 1451 1451 1452
1512 1511 1509 1507 1505 1504 1503 1501 1500 1502 1501 1499 1499 1499 1498 1497 1498 1498 1496 1497 1494 1494 1492 1496 1503 1505 1503 1502 1502 1502 1501 1495 1484 1486 1488 1476 1463 1448 1443 1444 1446 1449 1450 1451 1450
1512 1510 1508 1507 1505 1504 1503 1502 1500 1500 1500 1500 1499 1499 1499 1499 1500 1499 1497 1497 1497 1495 1496 1496 1503 1503 1501 1500 1501 1501 1499 1500 1500 1489 1477 1476 1463 1447 1441 1443 1445 1446 1446 1446 1446
1510 1509 1508 1507 1507 1504 1503 1502 1501 1502 1503 1501 1501 1500 1499 1498 1501 1500 1498 1500 1498 1499 1500 1500 1503 1503 1502 1500 1504 1506 1495 1498 1499 1497 1502 1482 1501 1457 1442 1441 1443 1443 1445 1445 1445
1508 1508 1507 1506 1506 1505 1505 1503 1502 1503 1507 1502 1502 1500 1498 1500 1503 1502 1501 1500 1501 1500 1501 1504 1503 1503 1500 1502 1503 1503 1496 1497 1495 1494 1496 1478 1497 1461 1445 1445 1443 1443 1444 1444 1443
1505 1506 1506 1505 1505 1505 1504 1503 1504 1511 1502 1504 1502 1501 1499 1499 1501 1501 1502 1503 1502 1501 1501 1503 1507 1506 1505 1503 1501 1499 1493 1487 1486 1491 1515 1475 1481 1464 1450 1447 1445 1444 1443 1441 1438
1502 1503 1504 1504 1504 1503 1504 1505 1510 1507 1505 1503 1501 1503 1499 1500 1499 1500 1501 1506 1508 1506 1501 1500 1503 1506 1507 1504 1501 1499 1503 1519 1517 1507 1503 1472 1480 1459 1445 1444 1445 1443 1441 1439 1435
1500 1500 1501 1503 1503 1502 1504 1508 1511 1502 1503 1502 1501 1502 1500 1505 1504 1500 1500 1503 1508 1509 1509 1511 1511 1504 1508 1507 1509 1506 1514 1540 1545 1524 1503 1479 1488 1455 1439 1441 1443 1443 1441 1437 1430
1495 1498 1499 1500 1501 1502 1506 1512 1498 1499 1499 1501 1504 1505 1509 1506 1503 1501 1503 1504 1508 1510 1517 1516 1498 1506 1509 1508 1510 1509 1518 1512 1533 1524 1518 1485 1458 1443 1441 1441 1441 1442 1439 1433 1426
1491 1493 1494 1498 1499 1503 1508 1503 1498 1495 1497 1498 1498 1505 1504 1510 1504 1501 1502 1505 1510 1511 1512 1517 1523 1502 1510 1510 1511 1512 1513 1526 1528 1547 1537 1484 1464 1457 1445 1442 1443 1440 1435 1428 1420
1486 1489 1492 1494 1500 1504 1509 1501 1496 1495 1497 1497 1499 1506 1502 1507 1505 1505 1505 1508 1507 1511 1512 1513 1524 1507 1508 1509 1508 1519 1520 1522 1518 1519 1535 1521 1479 1439 1441 1443 1441 1436 1431 1425 1416
1480 1485 1490 1490 1502 1504 1500 1496 1495 1495 1498 1498 1497 1496 1500 1504 1506 1501 1502 1503 1506 1509 1516 1516 1520 1525 1497 1500 1503 1507 1507 1511 1533 1523 1512 1513 1483 1440 1438 1438 1438 1435 1430 1423 1416
1479 1481 1488 1488 1492 1498 1494 1493 1493 1495 1497 1498 1497 1496 1500 1503 1503 1502 1501 1508 1507 1509 1515 1516 1524 1532 1507 1506 1504 1506 1500 1502 1516 1521 1520 1535 1478 1431 1435 1440 1440 1436 1430 1422 1413
1471 1481 1486 1487 1484 1484 1491 1491 1492 1493 1494 1496 1496 1497 1500 1503 1502 1507 1503 1509 1510 1510 1515 1515 1518 1521 1511 1496 1500 1501 1497 1499 1514 1532 1519 1490 1471 1444 1444 1445 1439 1436 1431 1421 1413
1465 1461 1467 1477 1479 1481 1482 1484 1486 1490 1493 1494 1495 1492 1493 1505 1505 1506 1501 1509 1511 1511 1515 1517 1526 1518 1509 1503 1503 1498 1497 1497 1501 1499 1506 1463 1481 1452 1448 1445 1440 1435 1427 1420 1412
1449 1451 1462 1465 1462 1475 1476 1479 1479 1484 1489 1490 1489 1486 1491 1496 1489 1497 1495 1502 1504 1510 1513 1513 1521 1511 1510 1496 1495 1493 1485 1485 1485 1485 1483 1476 1467 1447 1445 1443 1438 1434 1429 1422 1414
1440 1442 1446 1457 1464 1467 1464 1467 1467 1474 1480 1476 1479 1485 1488 1488 1490 1491 1492 1492 1496 1502 1510 1511 1518 1521 1513 1495 1493 1495 1465 1469 1472 1472 1474 1481 1452 1444 1441 1440 1437 1435 1432 1424 1416